OBJECT Z, 61758

Orbit data source: Space-Track

You're viewing an Uncataloged Satellite

Recently launched and/or uncataloged satellites may have evolving metadata. Metadata may include but not limited to: Owner, Maufacturer, Bus, Motor, and Mission.

OBJECT Z, 61758 is a satellite in SSO that was launched on Mon, 04 Nov 2024 UTC via a SOYUZ-2-1B launch vehicle from the Vostochny Cosmodrome (VOSTO). Unknown objects in Earth's orbit typically refer to objects detected orbiting the Earth but have not yet been identified or cataloged. These objects could be anything from previously untracked satellites, spent rocket stages, debris from satellite collisions, or even natural meteoroids temporarily captured by Earth's gravity.

Loading next visibility...
Identifier
61758, 2024-199Z
Orbit
SSO
Country
Flag of TBDTBD
Related business
Manufacturer
Sputniks
Mission
Operational Commercial Communications
Bus & Motor
CUBESAT 3U?, Unknown motor
Mass
3 kg wet, 3 kg dry
Launch date (UTC)
2024-11-04 (2 years ago)
Launch vehicle
SOYUZ-2-1B
Launch site
Vostochny Cosmodrome (VOSTO)
Object type
Unknown
Shape & HBR
Box, 0.1 m
Radar Cross Section
0.035 m², Small (<0.1 m²)

Expand to show TLE details & history
Last TLE update: 12 hours ago

TLE from 12 hours ago
0 OBJECT Z
1 61758U 24199Z   26145.58979230  .00002213  00000-0  19280-3 0  9994
2 61758  97.3260 346.5643 0007211 131.6214 228.5628 14.97815754131757
Epoch: 2026-05-25T14:09Z
TLE epoch observation values (Epoch: 2026-05-25T14:09:18.054Z)
Latitude
-0.00004°
Longitude
-108.93633°
Altitude
580.029 km
Speed
7.569 km/s
True Right ascension
23h 06m 15s
True Declination
0° 00' 00"
Sunlit
Object was in daylight at epoch
Visualization orbit readout
Latitude
Unknown
Longitude
Unknown
Altitude
Unknown
Speed
Unknown
Apparent Right ascension
Unknown
Apparent Declination
Unknown
Sunlit
N/A
Visualization observer readout
Local Sidereal Time
11:38:03
Azimuth
Unknown
Elevation
Unknown
Doppler factor
Unknown
Orbital elements
Apogee altitude
575.649 km
Perigee altitude
565.628 km
Semi-major axis
6,948.776 km
Eccentricity
0.00072
Inclination
97.326°
RAAN
346.5643°
Arg. of periapsis
131.6214°
True anomaly
228.50089°
Mean anomaly
228.5628°
Eccentric anomaly
228.53184°
Mean motion
3.74697 °/min
Orbital period
96.08 mins
BSTAR
0.0001928
Loading maneuver chart data...
Computing Atmospheric mass density...
Loading historical data...
Loading historical data...
Loading historical data...
Loading historical data...
Loading historical data...
Loading historical data...
Loading historical data...

Documentation

Showing up to 5 results
|